Location: Belmont
(13.0833°N, 59.6000°W)
Time: 11:47:08
(UTC+00:00)

COSMOS 2455 - Pass Details

Date: 17 September 2019
Orbit: 900 x 909 km, 67.1° (Epoch: 18 October)

Event Time Altitude Azimuth Distance (km) Brightness Sun altitude
Rises 23:28:59 0° 349° (N) 3,525 6.2 -22.8°
Reaches altitude 10° 23:31:35 10° 355° (N) 2,583 5.4 -23.5°
Enters shadow 23:36:43 46° 49° (NE) 1,192 3.1 -24.7°
